Time,TemperatureF,DewpointF,PressureIn,WindDirection,WindDirectionDegrees,WindSpeedMPH,WindSpeedGustMPH,Humidity,HourlyPrecipIn,Conditions,Clouds,dailyrainin,SoftwareType,DateUTC
2013-03-05 00:00:00,36.7,27.5,30.03,ESE,112,0.0,0.0,69,0.00,,,0.00,WUHU21623XXSP,2013-03-05 05:00:00,
2013-03-05 00:05:00,36.7,27.5,30.03,ESE,112,0.0,0.0,69,0.00,,,0.00,WUHU21623XXSP,2013-03-05 05:05:00,
2013-03-05 00:12:00,37.2,28.4,30.02,NNE,22,1.7,1.9,70,0.00,,,0.00,WUHU21623XXSP,2013-03-05 05:12:00,
2013-03-05 00:17:00,37.2,28.4,30.02,East,90,0.0,1.9,70,0.00,,,0.00,WUHU21623XXSP,2013-03-05 05:17:00,
2013-03-05 00:22:00,37.2,28.7,30.02,East,90,0.0,1.9,71,0.00,,,0.00,WUHU21623XXSP,2013-03-05 05:22:00,
2013-03-05 00:27:00,37.6,29.1,30.02,NNE,22,0.0,0.0,71,0.00,,,0.00,WUHU21623XXSP,2013-03-05 05:27:00,
2013-03-05 00:32:00,37.6,29.1,30.02,SSW,202,0.0,1.9,71,0.00,,,0.00,WUHU21623XXSP,2013-03-05 05:32:00,
2013-03-05 00:37:00,37.6,29.4,30.02,North,0,0.0,1.9,72,0.00,,,0.00,WUHU21623XXSP,2013-03-05 05:37:00,
2013-03-05 00:42:00,37.6,29.1,30.01,NNE,22,0.0,0.0,71,0.00,,,0.00,WUHU21623XXSP,2013-03-05 05:42:00,
2013-03-05 00:47:00,37.6,29.4,30.01,East,90,0.0,0.0,72,0.00,,,0.00,WUHU21623XXSP,2013-03-05 05:47:00,
2013-03-05 00:52:00,37.4,28.9,30.02,South,180,0.0,0.0,71,0.00,,,0.00,WUHU21623XXSP,2013-03-05 05:52:00,
2013-03-05 00:57:00,37.2,28.7,30.01,East,90,0.0,0.0,71,0.00,,,0.00,WUHU21623XXSP,2013-03-05 05:57:00,
2013-03-05 01:02:00,37.2,29.0,30.02,SSW,202,0.0,0.0,72,0.00,,,0.00,WUHU21623XXSP,2013-03-05 06:02:00,
2013-03-05 01:07:00,37.0,28.9,30.01,ESE,112,0.0,0.0,72,0.00,,,0.00,WUHU21623XXSP,2013-03-05 06:07:00,
2013-03-05 01:12:00,36.9,28.7,30.01,East,90,0.0,0.0,72,0.00,,,0.00,WUHU21623XXSP,2013-03-05 06:12:00,
2013-03-05 01:17:00,36.7,28.8,30.00,East,90,1.7,1.9,73,0.00,,,0.00,WUHU21623XXSP,2013-03-05 06:17:00,
2013-03-05 01:22:00,36.7,28.5,30.00,ESE,112,0.0,1.9,72,0.00,,,0.00,WUHU21623XXSP,2013-03-05 06:22:00,
2013-03-05 01:27:00,36.7,28.5,30.00,ESE,112,0.0,1.9,72,0.00,,,0.00,WUHU21623XXSP,2013-03-05 06:27:00,
2013-03-05 01:32:00,36.7,29.2,30.00,East,90,1.7,1.9,74,0.00,,,0.00,WUHU21623XXSP,2013-03-05 06:32:00,
2013-03-05 01:37:00,37.0,29.2,30.00,NNE,22,0.0,1.9,73,0.00,,,0.00,WUHU21623XXSP,2013-03-05 06:37:00,
2013-03-05 01:42:00,37.0,29.5,30.00,West,270,0.0,1.9,74,0.00,,,0.00,WUHU21623XXSP,2013-03-05 06:42:00,
2013-03-05 01:47:00,37.0,29.5,30.00,West,270,0.0,0.0,74,0.00,,,0.00,WUHU21623XXSP,2013-03-05 06:47:00,
2013-03-05 01:52:00,37.2,29.7,30.00,ESE,112,0.0,0.0,74,0.00,,,0.00,WUHU21623XXSP,2013-03-05 06:52:00,
2013-03-05 01:57:00,37.4,30.2,29.99,ESE,112,0.0,0.0,75,0.00,,,0.00,WUHU21623XXSP,2013-03-05 06:57:00,
2013-03-05 02:02:00,37.6,30.4,29.99,SSW,202,0.0,0.0,75,0.00,,,0.00,WUHU21623XXSP,2013-03-05 07:02:00,
2013-03-05 02:07:00,37.9,30.4,29.99,NNE,22,0.0,0.0,74,0.00,,,0.00,WUHU21623XXSP,2013-03-05 07:07:00,
2013-03-05 02:12:00,37.9,30.4,29.99,NNE,22,0.0,0.0,74,0.00,,,0.00,WUHU21623XXSP,2013-03-05 07:12:00,
2013-03-05 02:17:00,37.9,30.7,29.99,NNE,22,0.0,0.0,75,0.00,,,0.00,WUHU21623XXSP,2013-03-05 07:17:00,
2013-03-05 02:22:00,38.3,31.0,29.99,NNE,22,0.0,0.0,75,0.00,,,0.00,WUHU21623XXSP,2013-03-05 07:22:00,
2013-03-05 02:27:00,38.3,31.0,29.99,North,0,0.0,0.0,75,0.00,,,0.00,WUHU21623XXSP,2013-03-05 07:27:00,
2013-03-05 02:32:00,38.5,31.2,29.99,NNE,22,0.0,0.0,75,0.00,,,0.00,WUHU21623XXSP,2013-03-05 07:32:00,
2013-03-05 02:37:00,38.8,31.6,29.98,NNE,22,0.0,0.0,75,0.00,,,0.00,WUHU21623XXSP,2013-03-05 07:37:00,
2013-03-05 02:42:00,38.8,31.9,29.98,North,0,0.0,0.0,76,0.00,,,0.00,WUHU21623XXSP,2013-03-05 07:42:00,
2013-03-05 02:47:00,39.0,32.1,29.98,WNW,292,0.0,0.0,76,0.00,,,0.00,WUHU21623XXSP,2013-03-05 07:47:00,
2013-03-05 02:52:00,39.0,32.1,29.98,West,270,0.0,0.0,76,0.00,,,0.00,WUHU21623XXSP,2013-03-05 07:52:00,
2013-03-05 02:57:00,39.0,32.1,29.98,WNW,292,0.0,0.0,76,0.00,,,0.00,WUHU21623XXSP,2013-03-05 07:57:00,
2013-03-05 03:02:00,39.0,32.1,29.98,East,90,0.0,0.0,76,0.00,,,0.00,WUHU21623XXSP,2013-03-05 08:02:00,
2013-03-05 03:08:00,39.4,32.4,29.97,ESE,112,0.0,1.7,76,0.00,,,0.00,WUHU21623XXSP,2013-03-05 08:08:00,
2013-03-05 03:13:00,39.4,32.4,29.97,ESE,112,0.0,1.7,76,0.00,,,0.00,WUHU21623XXSP,2013-03-05 08:13:00,
2013-03-05 03:18:00,39.4,32.4,29.97,North,0,0.0,0.0,76,0.00,,,0.00,WUHU21623XXSP,2013-03-05 08:18:00,
2013-03-05 03:23:00,39.6,32.6,29.96,SSW,202,0.0,0.0,76,0.00,,,0.00,WUHU21623XXSP,2013-03-05 08:23:00,
2013-03-05 03:28:00,39.6,32.6,29.96,South,180,0.0,0.0,76,0.00,,,0.00,WUHU21623XXSP,2013-03-05 08:28:00,
2013-03-05 03:33:00,39.4,32.8,29.96,North,0,0.0,0.0,77,0.00,,,0.00,WUHU21623XXSP,2013-03-05 08:33:00,
2013-03-05 03:38:00,39.2,32.9,29.96,NNE,22,0.0,0.0,78,0.00,,,0.00,WUHU21623XXSP,2013-03-05 08:38:00,
2013-03-05 03:43:00,39.0,33.1,29.96,NNE,22,0.0,0.0,79,0.00,,,0.00,WUHU21623XXSP,2013-03-05 08:43:00,
2013-03-05 03:48:00,39.0,33.1,29.96,North,0,0.0,0.0,79,0.00,,,0.00,WUHU21623XXSP,2013-03-05 08:48:00,
2013-03-05 03:53:00,39.0,33.4,29.95,NNE,22,0.0,0.0,80,0.00,,,0.00,WUHU21623XXSP,2013-03-05 08:53:00,
2013-03-05 03:58:00,38.8,33.3,29.95,East,90,0.0,0.0,80,0.00,,,0.00,WUHU21623XXSP,2013-03-05 08:58:00,
2013-03-05 04:03:00,38.8,33.5,29.95,SSW,202,0.0,0.0,81,0.00,,,0.00,WUHU21623XXSP,2013-03-05 09:03:00,
2013-03-05 04:08:00,38.8,33.5,29.95,South,180,0.0,0.0,81,0.00,,,0.00,WUHU21623XXSP,2013-03-05 09:08:00,
2013-03-05 04:13:00,39.0,33.7,29.94,South,180,0.0,0.0,81,0.00,,,0.00,WUHU21623XXSP,2013-03-05 09:13:00,
2013-03-05 04:18:00,39.0,33.7,29.94,WNW,292,0.0,0.0,81,0.00,,,0.00,WUHU21623XXSP,2013-03-05 09:18:00,
2013-03-05 04:23:00,39.0,34.0,29.94,East,90,0.0,0.0,82,0.00,,,0.00,WUHU21623XXSP,2013-03-05 09:23:00,
2013-03-05 04:28:00,39.0,34.0,29.94,ESE,112,0.0,0.0,82,0.00,,,0.00,WUHU21623XXSP,2013-03-05 09:28:00,
2013-03-05 04:33:00,39.4,34.4,29.95,West,270,0.0,0.0,82,0.00,,,0.00,WUHU21623XXSP,2013-03-05 09:33:00,
2013-03-05 04:38:00,39.4,34.4,29.95,West,270,0.0,0.0,82,0.00,,,0.00,WUHU21623XXSP,2013-03-05 09:38:00,
2013-03-05 04:43:00,39.0,34.0,29.95,WNW,292,0.0,0.0,82,0.00,,,0.00,WUHU21623XXSP,2013-03-05 09:43:00,
2013-03-05 04:48:00,39.0,34.3,29.95,ESE,112,0.0,0.0,83,0.00,,,0.00,WUHU21623XXSP,2013-03-05 09:48:00,
2013-03-05 04:53:00,38.8,34.1,29.95,ESE,112,0.0,0.0,83,0.02,,,0.02,WUHU21623XXSP,2013-03-05 09:53:00,
2013-03-05 04:58:00,38.8,34.1,29.95,NNE,22,0.0,0.0,83,0.02,,,0.02,WUHU21623XXSP,2013-03-05 09:58:00,
2013-03-05 05:03:00,38.8,34.4,29.95,ESE,112,0.0,0.0,84,0.02,,,0.02,WUHU21623XXSP,2013-03-05 10:03:00,
2013-03-05 05:08:00,38.5,34.1,29.94,West,270,0.0,0.0,84,0.02,,,0.02,WUHU21623XXSP,2013-03-05 10:08:00,
2013-03-05 05:13:00,38.5,34.3,29.95,ESE,112,0.0,0.0,85,0.02,,,0.02,WUHU21623XXSP,2013-03-05 10:13:00,
2013-03-05 05:18:00,38.5,34.3,29.94,South,180,0.0,0.0,85,0.02,,,0.02,WUHU21623XXSP,2013-03-05 10:18:00,
2013-03-05 05:23:00,38.5,34.3,29.94,East,90,0.0,0.0,85,0.02,,,0.02,WUHU21623XXSP,2013-03-05 10:23:00,
2013-03-05 05:28:00,38.1,34.0,29.94,NNE,22,0.0,0.0,85,0.04,,,0.04,WUHU21623XXSP,2013-03-05 10:28:00,
2013-03-05 05:33:00,38.1,34.3,29.94,NNE,22,0.0,0.0,86,0.04,,,0.04,WUHU21623XXSP,2013-03-05 10:33:00,
2013-03-05 05:38:00,38.1,34.3,29.94,NNE,22,0.0,0.0,86,0.04,,,0.04,WUHU21623XXSP,2013-03-05 10:38:00,
2013-03-05 05:43:00,38.1,34.3,29.95,ESE,112,0.0,0.0,86,0.04,,,0.04,WUHU21623XXSP,2013-03-05 10:43:00,
2013-03-05 05:48:00,37.9,34.1,29.95,ESE,112,0.0,0.0,86,0.04,,,0.04,WUHU21623XXSP,2013-03-05 10:48:00,
2013-03-05 05:53:00,37.9,34.1,29.95,NNE,22,0.0,0.0,86,0.02,,,0.04,WUHU21623XXSP,2013-03-05 10:53:00,
2013-03-05 05:58:00,37.9,34.1,29.95,East,90,0.0,0.0,86,0.02,,,0.04,WUHU21623XXSP,2013-03-05 10:58:00,
2013-03-05 06:03:00,37.9,34.1,29.94,NNE,22,0.0,0.0,86,0.02,,,0.04,WUHU21623XXSP,2013-03-05 11:03:00,
2013-03-05 06:08:00,37.9,34.1,29.94,SSW,202,0.0,0.0,86,0.02,,,0.04,WUHU21623XXSP,2013-03-05 11:08:00,
2013-03-05 06:13:00,37.9,34.4,29.94,South,180,0.0,0.0,87,0.02,,,0.04,WUHU21623XXSP,2013-03-05 11:13:00,
2013-03-05 06:18:00,37.9,34.4,29.94,WNW,292,0.0,0.0,87,0.02,,,0.04,WUHU21623XXSP,2013-03-05 11:18:00,
2013-03-05 06:23:00,37.9,34.4,29.94,NNE,22,0.0,0.0,87,0.02,,,0.04,WUHU21623XXSP,2013-03-05 11:23:00,
2013-03-05 06:28:00,38.1,34.6,29.94,NNE,22,0.0,0.0,87,0.00,,,0.04,WUHU21623XXSP,2013-03-05 11:28:00,
2013-03-05 06:34:00,38.1,34.6,29.94,ESE,112,0.0,0.0,87,0.00,,,0.04,WUHU21623XXSP,2013-03-05 11:34:00,
2013-03-05 06:39:00,38.1,34.6,29.94,ESE,112,0.0,0.0,87,0.00,,,0.04,WUHU21623XXSP,2013-03-05 11:39:00,
2013-03-05 06:44:00,38.3,34.7,29.94,SSW,202,0.0,0.0,87,0.00,,,0.04,WUHU21623XXSP,2013-03-05 11:44:00,
2013-03-05 06:49:00,38.3,34.7,29.94,North,0,0.0,0.0,87,0.00,,,0.04,WUHU21623XXSP,2013-03-05 11:49:00,
2013-03-05 06:54:00,38.3,34.7,29.94,North,0,0.0,0.0,87,0.00,,,0.04,WUHU21623XXSP,2013-03-05 11:54:00,
2013-03-05 06:59:00,38.5,34.9,29.94,North,0,0.0,0.0,87,0.00,,,0.04,WUHU21623XXSP,2013-03-05 11:59:00,
2013-03-05 07:04:00,38.5,34.9,29.94,East,90,0.0,0.0,87,0.00,,,0.04,WUHU21623XXSP,2013-03-05 12:04:00,
2013-03-05 07:09:00,38.5,34.9,29.94,ESE,112,0.0,0.0,87,0.00,,,0.04,WUHU21623XXSP,2013-03-05 12:09:00,
2013-03-05 07:14:00,38.5,34.9,29.94,NNE,22,0.0,0.0,87,0.00,,,0.04,WUHU21623XXSP,2013-03-05 12:14:00,
2013-03-05 07:19:00,38.5,34.9,29.94,West,270,0.0,0.0,87,0.00,,,0.04,WUHU21623XXSP,2013-03-05 12:19:00,
2013-03-05 07:24:00,38.8,35.6,29.93,North,0,0.0,0.0,88,0.00,,,0.04,WUHU21623XXSP,2013-03-05 12:24:00,
2013-03-05 07:29:00,38.8,35.6,29.94,SSW,202,0.0,0.0,88,0.00,,,0.04,WUHU21623XXSP,2013-03-05 12:29:00,
2013-03-05 07:34:00,38.8,35.6,29.94,North,0,0.0,0.0,88,0.00,,,0.04,WUHU21623XXSP,2013-03-05 12:34:00,
2013-03-05 07:39:00,38.8,35.6,29.94,WNW,292,0.0,0.0,88,0.00,,,0.04,WUHU21623XXSP,2013-03-05 12:39:00,
2013-03-05 07:44:00,38.8,35.6,29.93,NNE,22,0.0,0.0,88,0.00,,,0.04,WUHU21623XXSP,2013-03-05 12:44:00,
2013-03-05 07:49:00,38.8,35.6,29.93,East,90,0.0,0.0,88,0.00,,,0.04,WUHU21623XXSP,2013-03-05 12:49:00,
2013-03-05 07:54:00,38.8,35.6,29.94,North,0,0.0,0.0,88,0.00,,,0.04,WUHU21623XXSP,2013-03-05 12:54:00,
2013-03-05 07:59:00,38.8,35.6,29.94,North,0,0.0,0.0,88,0.00,,,0.04,WUHU21623XXSP,2013-03-05 12:59:00,
2013-03-05 08:04:00,38.8,35.6,29.94,ESE,112,0.0,0.0,88,0.00,,,0.04,WUHU21623XXSP,2013-03-05 13:04:00,
2013-03-05 08:09:00,38.8,35.6,29.95,NNE,22,0.0,0.0,88,0.00,,,0.04,WUHU21623XXSP,2013-03-05 13:09:00,
2013-03-05 08:14:00,38.8,35.6,29.97,WNW,292,3.8,4.4,88,0.00,,,0.04,WUHU21623XXSP,2013-03-05 13:14:00,
2013-03-05 08:19:00,38.8,35.6,29.97,East,90,1.4,4.4,88,0.00,,,0.04,WUHU21623XXSP,2013-03-05 13:19:00,
2013-03-05 08:24:00,38.8,35.6,29.93,East,90,1.4,4.4,88,0.02,,,0.06,WUHU21623XXSP,2013-03-05 13:24:00,
2013-03-05 08:29:00,38.8,35.3,29.94,North,0,2.9,4.4,87,0.04,,,0.09,WUHU21623XXSP,2013-03-05 13:29:00,
2013-03-05 08:34:00,38.8,35.3,29.96,NNE,22,1.4,3.3,87,0.06,,,0.11,WUHU21623XXSP,2013-03-05 13:34:00,
2013-03-05 08:39:00,38.8,35.3,29.95,NNE,22,1.4,3.3,87,0.06,,,0.11,WUHU21623XXSP,2013-03-05 13:39:00,
2013-03-05 08:44:00,38.8,35.6,29.93,East,90,4.4,5.1,88,0.09,,,0.13,WUHU21623XXSP,2013-03-05 13:44:00,
2013-03-05 08:49:00,38.8,35.6,29.95,WNW,292,1.7,5.1,88,0.13,,,0.17,WUHU21623XXSP,2013-03-05 13:49:00,
2013-03-05 08:54:00,38.8,35.6,29.94,ESE,112,2.9,5.1,88,0.15,,,0.19,WUHU21623XXSP,2013-03-05 13:54:00,
2013-03-05 08:59:00,38.8,35.6,29.93,East,90,0.0,3.3,88,0.17,,,0.22,WUHU21623XXSP,2013-03-05 13:59:00,
2013-03-05 09:04:00,39.0,35.7,29.93,East,90,0.0,3.3,88,0.19,,,0.24,WUHU21623XXSP,2013-03-05 14:04:00,
2013-03-05 09:09:00,39.0,35.7,29.94,North,0,0.0,1.3,88,0.22,,,0.26,WUHU21623XXSP,2013-03-05 14:09:00,
2013-03-05 09:14:00,39.0,35.7,29.93,East,90,0.0,1.9,88,0.22,,,0.26,WUHU21623XXSP,2013-03-05 14:14:00,
2013-03-05 09:19:00,39.0,35.7,29.93,NNE,22,0.0,1.9,88,0.22,,,0.26,WUHU21623XXSP,2013-03-05 14:19:00,
2013-03-05 09:24:00,39.0,35.7,29.93,NNE,22,0.0,0.0,88,0.22,,,0.28,WUHU21623XXSP,2013-03-05 14:24:00,
2013-03-05 09:30:00,39.0,35.7,29.92,NNE,22,0.0,0.0,88,0.22,,,0.30,WUHU21623XXSP,2013-03-05 14:30:00,
2013-03-05 09:35:00,39.0,35.7,29.93,North,0,0.0,0.0,88,0.19,,,0.30,WUHU21623XXSP,2013-03-05 14:35:00,
2013-03-05 09:40:00,39.0,35.7,29.93,SSW,202,0.0,0.0,88,0.19,,,0.30,WUHU21623XXSP,2013-03-05 14:40:00,
2013-03-05 09:45:00,39.2,35.9,29.92,NNE,22,0.0,0.0,88,0.17,,,0.30,WUHU21623XXSP,2013-03-05 14:45:00,
2013-03-05 09:50:00,39.4,36.1,29.92,East,90,0.0,0.0,88,0.13,,,0.30,WUHU21623XXSP,2013-03-05 14:50:00,
2013-03-05 09:55:00,39.6,36.3,29.92,West,270,0.0,0.0,88,0.13,,,0.32,WUHU21623XXSP,2013-03-05 14:55:00,
2013-03-05 10:00:00,39.9,36.6,29.91,West,270,0.0,0.0,88,0.11,,,0.32,WUHU21623XXSP,2013-03-05 15:00:00,
2013-03-05 10:05:00,39.9,36.6,29.91,ESE,112,0.0,0.0,88,0.09,,,0.32,WUHU21623XXSP,2013-03-05 15:05:00,
2013-03-05 10:10:00,39.9,36.6,29.90,NNE,22,0.0,0.0,88,0.06,,,0.32,WUHU21623XXSP,2013-03-05 15:10:00,
2013-03-05 10:15:00,39.9,36.6,29.90,North,0,0.0,0.0,88,0.06,,,0.32,WUHU21623XXSP,2013-03-05 15:15:00,
2013-03-05 10:20:00,39.9,36.6,29.90,North,0,0.0,0.0,88,0.06,,,0.32,WUHU21623XXSP,2013-03-05 15:20:00,
2013-03-05 10:25:00,40.1,36.8,29.89,NNE,22,0.0,0.0,88,0.04,,,0.32,WUHU21623XXSP,2013-03-05 15:25:00,
2013-03-05 10:30:00,40.3,37.0,29.89,WNW,292,0.0,0.0,88,0.02,,,0.32,WUHU21623XXSP,2013-03-05 15:30:00,
2013-03-05 10:35:00,40.3,37.0,29.89,NNE,22,0.0,0.0,88,0.02,,,0.32,WUHU21623XXSP,2013-03-05 15:35:00,
2013-03-05 10:40:00,40.1,36.8,29.88,NNE,22,0.0,0.0,88,0.02,,,0.32,WUHU21623XXSP,2013-03-05 15:40:00,
2013-03-05 10:45:00,39.9,36.6,29.88,WNW,292,0.0,0.0,88,0.02,,,0.32,WUHU21623XXSP,2013-03-05 15:45:00,
2013-03-05 10:50:00,39.9,36.6,29.88,North,0,0.0,0.0,88,0.02,,,0.32,WUHU21623XXSP,2013-03-05 15:50:00,
2013-03-05 10:55:00,39.9,36.6,29.87,North,0,0.0,0.0,88,0.00,,,0.32,WUHU21623XXSP,2013-03-05 15:55:00,
2013-03-05 11:01:00,39.9,36.6,29.87,NNE,22,0.0,0.0,88,0.00,,,0.32,WUHU21623XXSP,2013-03-05 16:01:00,
2013-03-05 11:06:00,39.9,36.6,29.87,West,270,0.0,0.0,88,0.00,,,0.32,WUHU21623XXSP,2013-03-05 16:06:00,
2013-03-05 11:11:00,39.9,36.6,29.86,NNE,22,0.0,0.0,88,0.00,,,0.32,WUHU21623XXSP,2013-03-05 16:11:00,
2013-03-05 11:16:00,39.9,36.6,29.86,NNE,22,2.6,3.0,88,0.00,,,0.32,WUHU21623XXSP,2013-03-05 16:16:00,
2013-03-05 11:21:00,40.1,36.8,29.86,West,270,1.7,3.0,88,0.00,,,0.32,WUHU21623XXSP,2013-03-05 16:21:00,
2013-03-05 11:26:00,40.3,37.0,29.86,West,270,0.0,3.0,88,0.00,,,0.32,WUHU21623XXSP,2013-03-05 16:26:00,
2013-03-05 11:31:00,40.1,36.8,29.86,NNE,22,0.0,1.9,88,0.00,,,0.32,WUHU21623XXSP,2013-03-05 16:31:00,
2013-03-05 11:36:00,40.3,37.0,29.86,West,270,0.0,0.0,88,0.00,,,0.32,WUHU21623XXSP,2013-03-05 16:36:00,
2013-03-05 11:41:00,40.1,36.8,29.86,SSW,202,0.0,1.9,88,0.02,,,0.35,WUHU21623XXSP,2013-03-05 16:41:00,
2013-03-05 11:46:00,40.1,36.8,29.87,WNW,292,0.0,1.9,88,0.06,,,0.39,WUHU21623XXSP,2013-03-05 16:46:00,
2013-03-05 11:51:00,40.1,36.8,29.86,NNE,22,0.0,0.0,88,0.06,,,0.39,WUHU21623XXSP,2013-03-05 16:51:00,
2013-03-05 11:56:00,40.1,36.8,29.86,SSW,202,0.0,0.0,88,0.09,,,0.41,WUHU21623XXSP,2013-03-05 16:56:00,
2013-03-05 12:01:00,40.1,36.8,29.85,NNE,22,0.0,0.0,88,0.09,,,0.41,WUHU21623XXSP,2013-03-05 17:01:00,
2013-03-05 12:06:00,40.1,36.8,29.85,East,90,0.0,0.0,88,0.11,,,0.43,WUHU21623XXSP,2013-03-05 17:06:00,
2013-03-05 12:11:00,40.3,37.0,29.86,WNW,292,0.0,0.0,88,0.13,,,0.45,WUHU21623XXSP,2013-03-05 17:11:00,
2013-03-05 12:16:00,40.3,37.0,29.85,North,0,0.0,0.0,88,0.13,,,0.45,WUHU21623XXSP,2013-03-05 17:16:00,
2013-03-05 12:21:00,40.5,37.1,29.85,ESE,112,0.0,0.0,88,0.16,,,0.49,WUHU21623XXSP,2013-03-05 17:21:00,
2013-03-05 12:26:00,40.5,37.1,29.85,North,0,0.0,0.0,88,0.16,,,0.49,WUHU21623XXSP,2013-03-05 17:26:00,
2013-03-05 12:31:00,40.6,37.3,29.85,North,0,0.0,0.0,88,0.16,,,0.49,WUHU21623XXSP,2013-03-05 17:31:00,
2013-03-05 12:36:00,40.6,37.3,29.85,East,90,0.0,0.0,88,0.18,,,0.51,WUHU21623XXSP,2013-03-05 17:36:00,
2013-03-05 12:41:00,40.6,37.3,29.84,NNE,22,0.0,2.4,88,0.18,,,0.53,WUHU21623XXSP,2013-03-05 17:41:00,
2013-03-05 12:46:00,40.6,37.3,29.84,ESE,112,0.0,2.4,88,0.18,,,0.57,WUHU21623XXSP,2013-03-05 17:46:00,
2013-03-05 12:51:00,40.6,37.3,29.84,ESE,112,0.0,0.0,88,0.18,,,0.57,WUHU21623XXSP,2013-03-05 17:51:00,
2013-03-05 12:56:00,40.8,37.5,29.81,East,90,3.8,4.4,88,0.23,,,0.64,WUHU21623XXSP,2013-03-05 17:56:00,
2013-03-05 13:01:00,40.8,37.5,29.78,East,90,2.9,4.4,88,0.23,,,0.64,WUHU21623XXSP,2013-03-05 18:01:00,
2013-03-05 13:07:00,40.8,37.5,29.78,NNE,22,0.0,4.4,88,0.21,,,0.64,WUHU21623XXSP,2013-03-05 18:07:00,
2013-03-05 13:12:00,40.8,37.5,29.78,East,90,4.7,5.4,88,0.21,,,0.66,WUHU21623XXSP,2013-03-05 18:12:00,
2013-03-05 13:17:00,41.0,37.7,29.78,SSW,202,0.0,5.4,88,0.23,,,0.68,WUHU21623XXSP,2013-03-05 18:17:00,
2013-03-05 13:22:00,41.5,38.2,29.77,ESE,112,1.7,5.4,88,0.22,,,0.70,WUHU21623XXSP,2013-03-05 18:22:00,
2013-03-05 13:27:00,42.3,39.3,29.76,East,90,0.0,1.9,89,0.22,,,0.70,WUHU21623XXSP,2013-03-05 18:27:00,
2013-03-05 13:32:00,42.8,39.8,29.76,South,180,0.0,0.0,89,0.22,,,0.70,WUHU21623XXSP,2013-03-05 18:32:00,
2013-03-05 13:37:00,42.6,39.6,29.76,SSW,202,0.0,0.0,89,0.19,,,0.70,WUHU21623XXSP,2013-03-05 18:37:00,
2013-03-05 13:42:00,42.6,39.6,29.76,South,180,0.0,0.0,89,0.17,,,0.70,WUHU21623XXSP,2013-03-05 18:42:00,
2013-03-05 13:47:00,42.6,39.6,29.75,South,180,0.0,0.0,89,0.13,,,0.70,WUHU21623XXSP,2013-03-05 18:47:00,
2013-03-05 13:52:00,43.0,40.0,29.74,South,180,0.0,0.0,89,0.11,,,0.70,WUHU21623XXSP,2013-03-05 18:52:00,
2013-03-05 13:57:00,43.0,40.0,29.73,North,0,0.0,0.0,89,0.09,,,0.72,WUHU21623XXSP,2013-03-05 18:57:00,
2013-03-05 14:02:00,43.2,40.2,29.73,WNW,292,0.0,0.0,89,0.09,,,0.72,WUHU21623XXSP,2013-03-05 19:02:00,
2013-03-05 14:07:00,43.2,40.2,29.71,ESE,112,4.7,5.4,89,0.09,,,0.72,WUHU21623XXSP,2013-03-05 19:07:00,
2013-03-05 14:12:00,43.0,40.0,29.68,NNE,22,0.0,5.4,89,0.15,,,0.81,WUHU21623XXSP,2013-03-05 19:12:00,
2013-03-05 14:17:00,43.2,40.2,29.70,West,270,0.0,5.4,89,0.13,,,0.81,WUHU21623XXSP,2013-03-05 19:17:00,
2013-03-05 14:22:00,43.3,40.3,29.70,NNE,22,0.0,0.0,89,0.13,,,0.83,WUHU21623XXSP,2013-03-05 19:22:00,
2013-03-05 14:27:00,43.3,40.3,29.70,WNW,292,0.0,0.0,89,0.13,,,0.83,WUHU21623XXSP,2013-03-05 19:27:00,
2013-03-05 14:32:00,43.2,40.2,29.69,WNW,292,0.0,0.0,89,0.13,,,0.83,WUHU21623XXSP,2013-03-05 19:32:00,
2013-03-05 14:37:00,42.6,39.6,29.70,WNW,292,0.0,2.7,89,0.13,,,0.83,WUHU21623XXSP,2013-03-05 19:37:00,
2013-03-05 14:42:00,42.4,39.4,29.69,North,0,1.7,2.7,89,0.13,,,0.83,WUHU21623XXSP,2013-03-05 19:42:00,
2013-03-05 14:47:00,42.4,39.4,29.69,South,180,0.0,1.9,89,0.13,,,0.83,WUHU21623XXSP,2013-03-05 19:47:00,
2013-03-05 14:52:00,42.6,39.6,29.69,NNE,22,0.0,1.9,89,0.11,,,0.83,WUHU21623XXSP,2013-03-05 19:52:00,
2013-03-05 14:57:00,42.6,39.6,29.69,WNW,292,0.0,0.0,89,0.11,,,0.83,WUHU21623XXSP,2013-03-05 19:57:00,
2013-03-05 15:02:00,42.6,39.6,29.69,WNW,292,0.0,0.0,89,0.15,,,0.87,WUHU21623XXSP,2013-03-05 20:02:00,
2013-03-05 15:07:00,42.6,39.6,29.69,WNW,292,0.0,0.0,89,0.13,,,0.87,WUHU21623XXSP,2013-03-05 20:07:00,
2013-03-05 15:12:00,42.6,39.6,29.69,WNW,292,1.7,1.9,89,0.09,,,0.90,WUHU21623XXSP,2013-03-05 20:12:00,
2013-03-05 15:17:00,42.4,39.4,29.69,WNW,292,0.0,1.9,89,0.11,,,0.92,WUHU21623XXSP,2013-03-05 20:17:00,
2013-03-05 15:22:00,42.4,39.4,29.70,NNE,22,0.0,1.9,89,0.13,,,0.96,WUHU21623XXSP,2013-03-05 20:22:00,
2013-03-05 15:27:00,42.4,39.4,29.71,North,0,0.0,0.0,89,0.15,,,0.98,WUHU21623XXSP,2013-03-05 20:27:00,
2013-03-05 15:32:00,42.4,39.4,29.72,North,0,0.0,0.0,89,0.17,,,1.00,WUHU21623XXSP,2013-03-05 20:32:00,
2013-03-05 15:37:00,42.4,39.4,29.75,WNW,292,1.2,1.3,89,0.21,,,1.04,WUHU21623XXSP,2013-03-05 20:37:00,
2013-03-05 15:42:00,42.4,39.4,29.73,West,270,0.0,1.3,89,0.25,,,1.08,WUHU21623XXSP,2013-03-05 20:42:00,
2013-03-05 15:47:00,42.6,39.6,29.69,ESE,112,2.1,2.4,89,0.27,,,1.10,WUHU21623XXSP,2013-03-05 20:47:00,
2013-03-05 15:52:00,43.0,40.0,29.70,WNW,292,0.0,5.1,89,0.44,,,1.27,WUHU21623XXSP,2013-03-05 20:52:00,
2013-03-05 15:57:00,43.0,40.0,29.70,East,90,0.0,5.1,89,0.44,,,1.27,WUHU21623XXSP,2013-03-05 20:57:00,
2013-03-05 16:03:00,43.5,40.2,29.69,ESE,112,0.0,0.0,88,0.42,,,1.30,WUHU21623XXSP,2013-03-05 21:03:00,
2013-03-05 16:08:00,44.2,41.2,29.69,ESE,112,1.7,1.9,89,0.42,,,1.30,WUHU21623XXSP,2013-03-05 21:08:00,
2013-03-05 16:13:00,45.1,41.8,29.68,SSW,202,0.0,1.9,88,0.40,,,1.30,WUHU21623XXSP,2013-03-05 21:13:00,
2013-03-05 16:18:00,46.2,42.9,29.67,SSW,202,0.0,2.4,88,0.36,,,1.30,WUHU21623XXSP,2013-03-05 21:18:00,
2013-03-05 16:23:00,47.1,44.1,29.65,NNE,22,0.0,2.7,89,0.33,,,1.30,WUHU21623XXSP,2013-03-05 21:23:00,
2013-03-05 16:28:00,47.7,44.3,29.65,ESE,112,1.4,2.7,88,0.31,,,1.30,WUHU21623XXSP,2013-03-05 21:28:00,
2013-03-05 16:33:00,48.0,44.7,29.66,ESE,112,1.7,3.3,88,0.26,,,1.30,WUHU21623XXSP,2013-03-05 21:33:00,
2013-03-05 16:38:00,48.0,44.7,29.67,South,180,0.0,3.3,88,0.24,,,1.30,WUHU21623XXSP,2013-03-05 21:38:00,
2013-03-05 16:43:00,47.3,44.3,29.68,South,180,3.3,3.8,89,0.22,,,1.30,WUHU21623XXSP,2013-03-05 21:43:00,
2013-03-05 16:48:00,46.8,43.7,29.68,South,180,4.7,5.4,89,0.04,,,1.30,WUHU21623XXSP,2013-03-05 21:48:00,
2013-03-05 16:53:00,46.8,43.7,29.68,South,180,2.9,5.4,89,0.02,,,1.30,WUHU21623XXSP,2013-03-05 21:53:00,
2013-03-05 16:58:00,46.9,43.9,29.67,South,180,1.7,5.4,89,0.02,,,1.30,WUHU21623XXSP,2013-03-05 21:58:00,
2013-03-05 17:03:00,47.1,44.1,29.68,South,180,2.1,4.4,89,0.00,,,1.30,WUHU21623XXSP,2013-03-05 22:03:00,
2013-03-05 17:08:00,47.5,44.5,29.69,West,270,2.3,4.4,89,0.00,,,1.30,WUHU21623XXSP,2013-03-05 22:08:00,
2013-03-05 17:13:00,48.4,45.0,29.70,North,0,0.0,2.7,88,0.00,,,1.30,WUHU21623XXSP,2013-03-05 22:13:00,
2013-03-05 17:18:00,49.3,45.8,29.70,North,0,4.0,5.7,88,0.00,,,1.30,WUHU21623XXSP,2013-03-05 22:18:00,
2013-03-05 17:23:00,50.2,46.7,29.71,WNW,292,7.0,12.8,88,0.00,,,1.30,WUHU21623XXSP,2013-03-05 22:23:00,
2013-03-05 17:28:00,50.4,46.9,29.73,WNW,292,1.4,12.8,88,0.00,,,1.30,WUHU21623XXSP,2013-03-05 22:28:00,
2013-03-05 17:33:00,50.2,45.8,29.73,West,270,10.1,11.7,85,0.00,,,1.30,WUHU21623XXSP,2013-03-05 22:33:00,
2013-03-05 17:38:00,49.8,45.1,29.75,WNW,292,5.8,11.7,84,0.00,,,1.30,WUHU21623XXSP,2013-03-05 22:38:00,
2013-03-05 17:43:00,49.3,44.3,29.76,WNW,292,6.6,15.8,83,0.00,,,1.30,WUHU21623XXSP,2013-03-05 22:43:00,
2013-03-05 17:48:00,48.4,42.7,29.77,West,270,8.2,15.8,81,0.00,,,1.30,WUHU21623XXSP,2013-03-05 22:48:00,
2013-03-05 17:53:00,47.8,42.2,29.78,West,270,0.0,9.5,81,0.00,,,1.30,WUHU21623XXSP,2013-03-05 22:53:00,
2013-03-05 17:58:00,47.5,41.6,29.78,West,270,3.3,9.5,80,0.00,,,1.30,WUHU21623XXSP,2013-03-05 22:58:00,
2013-03-05 18:03:00,46.6,40.8,29.79,North,0,10.1,11.7,80,0.00,,,1.30,WUHU21623XXSP,2013-03-05 23:03:00,
2013-03-05 18:08:00,46.0,40.3,29.79,WNW,292,3.3,11.7,80,0.00,,,1.30,WUHU21623XXSP,2013-03-05 23:08:00,
2013-03-05 18:13:00,45.7,40.2,29.80,WNW,292,6.1,11.7,81,0.00,,,1.30,WUHU21623XXSP,2013-03-05 23:13:00,
2013-03-05 18:18:00,45.3,39.6,29.81,North,0,9.9,11.4,80,0.00,,,1.30,WUHU21623XXSP,2013-03-05 23:18:00,
2013-03-05 18:23:00,45.0,39.2,29.81,West,270,6.6,11.4,80,0.00,,,1.30,WUHU21623XXSP,2013-03-05 23:23:00,
2013-03-05 18:28:00,44.4,39.0,29.81,North,0,7.5,11.4,81,0.00,,,1.30,WUHU21623XXSP,2013-03-05 23:28:00,
2013-03-05 18:33:00,44.4,38.7,29.81,WNW,292,4.7,8.7,80,0.00,,,1.30,WUHU21623XXSP,2013-03-05 23:33:00,
2013-03-05 18:39:00,44.2,38.8,29.82,WNW,292,5.8,8.7,81,0.00,,,1.30,WUHU21623XXSP,2013-03-05 23:39:00,
2013-03-05 18:44:00,43.7,37.9,29.82,WNW,292,4.9,7.4,80,0.00,,,1.30,WUHU21623XXSP,2013-03-05 23:44:00,
2013-03-05 18:49:00,43.5,37.8,29.83,WNW,292,5.6,14.1,80,0.00,,,1.30,WUHU21623XXSP,2013-03-05 23:49:00,
2013-03-05 18:54:00,43.2,37.4,29.84,West,270,2.3,14.1,80,0.00,,,1.30,WUHU21623XXSP,2013-03-05 23:54:00,
2013-03-05 18:59:00,42.6,36.9,29.84,WNW,292,6.1,7.0,80,0.00,,,1.30,WUHU21623XXSP,2013-03-05 23:59:00,
2013-03-05 19:04:00,42.4,36.4,29.85,WNW,292,9.4,10.8,79,0.00,,,1.30,WUHU21623XXSP,2013-03-06 00:04:00,
2013-03-05 19:09:00,42.1,36.3,29.86,WNW,292,4.7,10.8,80,0.00,,,1.30,WUHU21623XXSP,2013-03-06 00:09:00,
2013-03-05 19:14:00,41.5,35.8,29.87,West,270,7.0,10.4,80,0.00,,,1.30,WUHU21623XXSP,2013-03-06 00:14:00,
2013-03-05 19:19:00,41.0,35.2,29.88,WNW,292,11.1,12.8,80,0.00,,,1.30,WUHU21623XXSP,2013-03-06 00:19:00,
2013-03-05 19:24:00,40.5,35.0,29.89,WNW,292,12.7,14.7,81,0.00,,,1.30,WUHU21623XXSP,2013-03-06 00:24:00,
2013-03-05 19:29:00,39.9,34.8,29.89,North,0,4.9,14.7,82,0.00,,,1.30,WUHU21623XXSP,2013-03-06 00:29:00,
2013-03-05 19:34:00,39.7,34.7,29.90,WNW,292,6.4,7.4,82,0.00,,,1.30,WUHU21623XXSP,2013-03-06 00:34:00,
2013-03-05 19:39:00,39.4,34.4,29.91,WNW,292,1.7,9.8,82,0.00,,,1.30,WUHU21623XXSP,2013-03-06 00:39:00,
2013-03-05 19:44:00,38.8,33.8,29.91,WNW,292,3.3,9.8,82,0.00,,,1.30,WUHU21623XXSP,2013-03-06 00:44:00,
2013-03-05 19:49:00,38.7,33.7,29.91,WNW,292,5.8,6.8,82,0.00,,,1.30,WUHU21623XXSP,2013-03-06 00:49:00,
2013-03-05 19:54:00,38.5,33.5,29.92,SSW,202,4.0,8.4,82,0.00,,,1.30,WUHU21623XXSP,2013-03-06 00:54:00,
2013-03-05 19:59:00,38.3,33.0,29.92,WNW,292,2.6,8.4,81,0.00,,,1.30,WUHU21623XXSP,2013-03-06 00:59:00,
2013-03-05 20:04:00,38.1,32.8,29.93,WNW,292,2.9,3.3,81,0.00,,,1.30,WUHU21623XXSP,2013-03-06 01:04:00,
2013-03-05 20:09:00,37.9,32.4,29.93,WNW,292,2.9,6.8,80,0.00,,,1.30,WUHU21623XXSP,2013-03-06 01:09:00,
2013-03-05 20:14:00,37.9,32.4,29.94,SSW,202,0.0,10.0,80,0.00,,,1.30,WUHU21623XXSP,2013-03-06 01:14:00,
2013-03-05 20:19:00,37.9,32.4,29.93,ESE,112,0.0,10.0,80,0.00,,,1.30,WUHU21623XXSP,2013-03-06 01:19:00,
2013-03-05 20:24:00,37.8,32.2,29.94,WNW,292,0.0,3.0,80,0.00,,,1.30,WUHU21623XXSP,2013-03-06 01:24:00,
2013-03-05 20:29:00,37.6,32.0,29.94,WNW,292,7.5,8.7,80,0.00,,,1.30,WUHU21623XXSP,2013-03-06 01:29:00,
2013-03-05 20:34:00,37.6,32.0,29.94,West,270,3.5,8.7,80,0.00,,,1.30,WUHU21623XXSP,2013-03-06 01:34:00,
2013-03-05 20:39:00,37.4,31.2,29.94,North,0,7.3,9.5,78,0.00,,,1.30,WUHU21623XXSP,2013-03-06 01:39:00,
2013-03-05 20:44:00,37.6,31.7,29.94,WNW,292,0.0,9.5,79,0.00,,,1.30,WUHU21623XXSP,2013-03-06 01:44:00,
2013-03-05 20:49:00,37.4,31.5,29.94,North,0,2.3,8.4,79,0.00,,,1.30,WUHU21623XXSP,2013-03-06 01:49:00,
2013-03-05 20:54:00,37.4,31.2,29.94,WNW,292,1.7,2.7,78,0.00,,,1.30,WUHU21623XXSP,2013-03-06 01:54:00,
2013-03-05 20:59:00,37.4,31.2,29.94,WNW,292,0.9,2.7,78,0.00,,,1.30,WUHU21623XXSP,2013-03-06 01:59:00,
2013-03-05 21:04:00,37.4,31.5,29.94,WNW,292,1.4,1.9,79,0.00,,,1.30,WUHU21623XXSP,2013-03-06 02:04:00,
2013-03-05 21:09:00,37.6,31.3,29.94,SSW,202,3.3,3.8,78,0.00,,,1.30,WUHU21623XXSP,2013-03-06 02:09:00,
2013-03-05 21:14:00,37.4,31.2,29.94,WNW,292,2.9,3.8,78,0.00,,,1.30,WUHU21623XXSP,2013-03-06 02:14:00,
2013-03-05 21:20:00,37.4,31.2,29.94,WNW,292,1.7,3.8,78,0.00,,,1.30,WUHU21623XXSP,2013-03-06 02:20:00,
2013-03-05 21:25:00,37.2,31.0,29.94,North,0,3.8,4.4,78,0.00,,,1.30,WUHU21623XXSP,2013-03-06 02:25:00,
2013-03-05 21:30:00,37.2,31.3,29.94,WNW,292,0.0,4.4,79,0.00,,,1.30,WUHU21623XXSP,2013-03-06 02:30:00,
2013-03-05 21:35:00,37.4,31.2,29.94,WNW,292,3.5,5.7,78,0.00,,,1.30,WUHU21623XXSP,2013-03-06 02:35:00,
2013-03-05 21:40:00,37.4,30.8,29.94,West,270,14.6,16.8,77,0.00,,,1.30,WUHU21623XXSP,2013-03-06 02:40:00,
2013-03-05 21:45:00,37.4,30.8,29.94,North,0,2.1,16.8,77,0.00,,,1.30,WUHU21623XXSP,2013-03-06 02:45:00,
2013-03-05 21:50:00,37.2,30.7,29.94,North,0,4.0,16.8,77,0.00,,,1.30,WUHU21623XXSP,2013-03-06 02:50:00,
2013-03-05 21:55:00,37.2,31.0,29.94,WNW,292,2.1,4.6,78,0.00,,,1.30,WUHU21623XXSP,2013-03-06 02:55:00,
2013-03-05 22:00:00,37.2,30.7,29.94,WNW,292,2.3,4.6,77,0.00,,,1.30,WUHU21623XXSP,2013-03-06 03:00:00,
2013-03-05 22:05:00,37.2,30.3,29.94,WNW,292,1.7,2.7,76,0.00,,,1.30,WUHU21623XXSP,2013-03-06 03:05:00,
2013-03-05 22:10:00,37.2,30.3,29.94,WNW,292,0.0,4.4,76,0.00,,,1.30,WUHU21623XXSP,2013-03-06 03:10:00,
2013-03-05 22:15:00,37.2,30.7,29.94,ESE,112,0.0,4.4,77,0.00,,,1.30,WUHU21623XXSP,2013-03-06 03:15:00,
2013-03-05 22:20:00,37.2,30.3,29.94,West,270,2.1,4.1,76,0.00,,,1.30,WUHU21623XXSP,2013-03-06 03:20:00,
2013-03-05 22:25:00,37.0,30.5,29.94,North,0,2.1,4.1,77,0.00,,,1.30,WUHU21623XXSP,2013-03-06 03:25:00,
2013-03-05 22:30:00,37.0,30.2,29.94,WNW,292,0.0,2.4,76,0.00,,,1.30,WUHU21623XXSP,2013-03-06 03:30:00,
2013-03-05 22:35:00,36.9,30.0,29.93,North,0,0.0,2.4,76,0.00,,,1.30,WUHU21623XXSP,2013-03-06 03:35:00,
2013-03-05 22:40:00,36.9,29.7,29.93,WNW,292,0.0,1.9,75,0.00,,,1.30,WUHU21623XXSP,2013-03-06 03:40:00,
2013-03-05 22:45:00,37.0,29.8,29.93,SSW,202,3.5,4.1,75,0.00,,,1.30,WUHU21623XXSP,2013-03-06 03:45:00,
2013-03-05 22:50:00,37.0,29.5,29.93,WNW,292,2.6,4.1,74,0.00,,,1.30,WUHU21623XXSP,2013-03-06 03:50:00,
2013-03-05 22:55:00,36.9,29.3,29.93,WNW,292,0.0,3.0,74,0.00,,,1.30,WUHU21623XXSP,2013-03-06 03:55:00,
2013-03-05 23:00:00,36.9,29.3,29.93,WNW,292,0.0,6.8,73,0.00,,,1.30,WUHU21623XXSP,2013-03-06 04:00:00,
2013-03-05 23:05:00,36.7,28.8,29.93,North,0,1.2,6.8,73,0.00,,,1.30,WUHU21623XXSP,2013-03-06 04:05:00,
2013-03-05 23:10:00,36.7,28.8,29.92,WNW,292,0.0,4.6,73,0.00,,,1.30,WUHU21623XXSP,2013-03-06 04:10:00,
2013-03-05 23:15:00,36.7,28.8,29.92,WNW,292,1.7,4.6,73,0.00,,,1.30,WUHU21623XXSP,2013-03-06 04:15:00,
2013-03-05 23:20:00,36.7,28.8,29.92,WNW,292,2.1,3.3,73,0.00,,,1.30,WUHU21623XXSP,2013-03-06 04:20:00,
2013-03-05 23:25:00,36.5,28.7,29.92,WNW,292,2.3,6.0,73,0.00,,,1.30,WUHU21623XXSP,2013-03-06 04:25:00,
2013-03-05 23:30:00,36.5,28.7,29.92,WNW,292,0.0,6.0,73,0.00,,,1.30,WUHU21623XXSP,2013-03-06 04:30:00,
2013-03-05 23:35:00,36.5,28.7,29.92,West,270,0.0,6.0,73,0.00,,,1.30,WUHU21623XXSP,2013-03-06 04:35:00,
2013-03-05 23:40:00,36.5,28.7,29.92,North,0,2.6,6.0,73,0.00,,,1.30,WUHU21623XXSP,2013-03-06 04:40:00,
2013-03-05 23:45:00,36.3,28.5,29.93,North,0,7.0,8.1,73,0.00,,,1.30,WUHU21623XXSP,2013-03-06 04:45:00,
2013-03-05 23:50:00,36.0,28.4,29.93,WNW,292,0.0,8.1,74,0.00,,,1.30,WUHU21623XXSP,2013-03-06 04:50:00,
2013-03-05 23:55:00,35.8,28.9,29.92,West,270,0.0,8.1,76,0.00,,,1.30,WUHU21623XXSP,2013-03-06 04:55:00,